FW3274 Weather Reports


Display with metric or nautical units.
time (UTC)temp
F
wind
direction
speed
MPH
gust
MPH
rain 1hr
in
rain 24hr
in
rain mn
in
humidity
%
barometer
mb
20260503031515 53 71 0.0 0.0 0.00 0.00 0.00 71 1016.2
20260503030013 53 71 0.0 0.0 0.00 0.00 0.00 70 1016.3
20260503024513 53 71 0.0 0.0 0.00 0.00 0.00 70 1016.4
20260503023010 54 71 0.0 0.0 0.00 0.00 0.00 69 1016.4
20260503021506 55 71 0.0 0.0 0.00 0.00 0.00 67 1016.5
20260503020006 55 71 0.0 0.0 0.00 0.00 0.00 66 1016.5
20260503014504 55 71 0.0 0.0 0.00 0.00 0.00 66 1016.5
20260503013003 55 71 0.0 0.0 0.00 0.00 0.00 65 1016.5
20260503011502 55 71 0.0 0.0 0.00 0.00 0.00 65 1016.5
20260503010001 55 71 0.0 0.0 0.00 0.00 0.00 65 1016.6
20260503004606 55 71 0.0 0.0 0.00 0.00 0.00 64 1016.6
20260503003100 55 71 0.0 0.0 0.00 0.00 0.00 64 1016.8
20260503001558 55 71 0.0 0.0 0.00 0.00 0.00 63 1017.0
20260503000053 56 71 0.0 0.0 0.00 0.00 0.00 61 1017.0
20260502234550 57 71 0.0 0.0 0.00 0.00 0.00 59 1017.1
20260502233047 58 223 0.0 0.0 0.00 0.00 0.00 57 1017.1
20260502231545 59 223 0.0 0.0 0.00 0.00 0.00 57 1017.1
20260502230044 59 223 0.0 0.0 0.00 0.00 0.00 55 1017.2
20260502224641 59 223 0.0 0.0 0.00 0.00 0.00 55 1017.3
20260502223042 60 223 0.0 0.0 0.00 0.00 0.00 55 1017.4
20260502221538 60 223 0.0 0.0 0.00 0.00 0.00 54 1017.5
20260502220037 60 223 0.0 0.0 0.00 0.00 0.00 54 1017.5
20260502214536 60 223 0.0 0.0 0.00 0.00 0.00 53 1017.5
20260502213036 61 223 0.0 0.0 0.00 0.00 0.00 53 1017.5
20260502211542 61 223 0.0 0.0 0.00 0.00 0.00 52 1017.4
20260502210040 61 223 0.0 0.0 0.00 0.00 0.00 52 1017.4
20260502204534 62 223 0.0 0.0 0.00 0.00 0.00 51 1017.4
20260502203035 62 223 0.0 0.0 0.00 0.00 0.00 51 1017.5
20260502201535 63 223 0.0 0.0 0.00 0.00 0.00 50 1017.5
20260502200034 64 223 0.0 0.0 0.00 0.00 0.00 49 1017.6
20260502194532 64 223 0.0 0.0 0.00 0.00 0.00 48 1017.5
20260502193032 65 223 0.0 0.0 0.00 0.00 0.00 46 1017.4
20260502191531 66 223 0.0 0.0 0.00 0.00 0.00 44 1017.3
20260502190038 67 223 0.0 0.0 0.00 0.00 0.00 43 1017.3
20260502184548 68 223 0.0 0.0 0.00 0.00 0.00 42 1017.1
20260502183046 69 223 0.0 0.0 0.00 0.00 0.00 40 1017.0
20260502181537 70 223 0.0 0.0 0.00 0.00 0.00 39 1016.9
20260502163030 75 234 1.0 8.0 0.00 0.00 0.00 33 1017.1
20260502161525 76 222 0.0 7.0 0.00 0.00 0.00 33 1017.2
20260502151516 76 254 3.0 7.0 0.00 0.00 0.00 34 1017.7
20260502123057 75 232 0.0 10.0 0.00 0.00 0.00 31 1019.8
20260502121554 75 207 0.0 8.0 0.00 0.00 0.00 32 1020.0
20260502114603 74 213 0.0 8.0 0.00 0.00 0.00 35 1020.4
20260502113049 74 259 0.0 10.0 0.00 0.00 0.00 31 1020.6
20260502111551 74 286 4.0 12.0 0.00 0.00 0.00 32 1020.9
20260502110044 73 217 0.0 4.0 0.00 0.00 0.00 31 1021.0
20260502104549 73 206 2.0 7.0 0.00 0.00 0.00 31 1021.3
20260502103040 73 231 2.0 11.0 0.00 0.00 0.00 33 1021.4
20260502101604 72 227 0.0 7.0 0.00 0.00 0.00 33 1021.6
20260502091532 71 230 0.0 4.0 0.00 0.00 0.00 35 1022.2
20260502071517 67 302 0.0 0.0 0.00 0.00 0.00 38 1022.9
20260502070017 67 304 0.0 0.0 0.00 0.00 0.00 40 1023.1
20260502064513 65 302 0.0 0.0 0.00 0.00 0.00 42 1023.1
20260502063008 64 313 0.0 0.0 0.00 0.00 0.00 45 1023.2
20260502061505 62 310 0.0 0.0 0.00 0.00 0.00 46 1023.2
20260502060104 61 321 0.0 0.0 0.00 0.00 0.00 48 1023.3
20260502054559 59 326 0.0 0.0 0.00 0.00 0.00 51 1023.3
20260502053152 57 333 0.0 0.0 0.00 0.00 0.00 54 1023.4
20260502051619 55 360 0.0 0.0 0.00 0.00 0.00 55 1023.4
20260502050051 53 9 0.0 0.0 0.00 0.00 0.00 57 1023.3
20260502044550 51 9 0.0 0.0 0.00 0.00 0.00 61 1023.3
20260502043052 50 9 0.0 0.0 0.00 0.00 0.00 62 1023.2
20260502041549 49 5 0.0 0.0 0.00 0.00 0.00 62 1023.3
20260502040055 49 5 0.0 0.0 0.00 0.00 0.00 62 1023.3
20260502034547 49 5 0.0 0.0 0.00 0.00 0.00 61 1023.3
20260502033046 50 5 0.0 0.0 0.00 0.00 0.00 61 1023.2